Theta_e
353 357 362 366 367 369 369 367 366 368 368 367 367 365 364 363 365 364 364 363 364 367 366 365 366 365 364 362 362 361 361 361 361 361 360 360 360 360 359 360 362 357 360
355 357 362 366 368 367 368 367 367 368 367 367 367 366 365 365 365 364 364 363 364 366 363 363 363 363 362 360 360 362 364 362 361 362 362 362 361 361 360 361 361 358 359
355 356 357 365 367 366 367 367 367 366 366 366 366 365 364 364 365 364 363 362 364 364 363 363 363 362 359 359 359 361 361 362 362 361 359 357 359 359 357 358 358 357 357
356 358 357 364 366 366 367 367 367 366 364 366 368 368 367 366 364 364 361 361 362 364 364 364 363 363 358 358 359 363 363 362 361 358 352 350 353 357 356 357 356 356 356
357 359 360 365 367 365 366 367 367 367 365 367 366 366 366 365 364 362 360 359 360 361 361 361 363 364 361 357 360 360 357 359 358 356 359 357 351 354 355 355 355 355 354
356 358 361 364 364 364 365 367 366 367 367 368 367 364 364 361 360 360 360 359 359 361 363 362 363 362 362 360 360 361 358 358 351 353 357 356 357 357 357 355 355 355 354
355 357 358 365 365 365 365 366 368 367 366 368 368 368 368 366 364 363 364 361 359 359 359 360 361 361 361 359 358 357 356 355 352 349 349 351 355 357 358 359 357 356 354
355 356 357 363 364 364 364 365 366 366 366 366 367 365 365 364 364 364 363 362 362 361 360 359 359 359 358 357 356 355 353 353 345 345 342 350 349 355 357 358 357 357 357
356 355 357 358 361 363 366 365 364 365 365 365 364 363 365 362 362 361 361 360 360 359 359 357 356 356 356 354 353 353 354 355 349 348 345 348 347 352 356 357 357 356 356
356 355 357 360 360 361 363 364 363 364 364 363 361 360 363 357 356 359 360 360 360 358 357 357 356 355 355 354 355 355 354 353 355 352 349 349 347 351 355 356 357 358 356
354 353 355 356 360 361 362 360 364 363 362 359 359 357 359 356 352 349 355 355 357 357 357 358 358 358 357 357 356 355 355 356 356 354 351 349 348 351 354 355 357 357 356
349 351 352 354 355 358 358 362 363 363 362 357 354 351 349 351 343 342 353 353 355 354 355 355 356 355 357 360 358 353 353 355 356 354 353 351 352 354 353 355 357 359 357
348 350 352 356 358 357 357 360 361 360 361 355 353 352 351 348 347 346 351 354 353 353 354 353 354 354 352 355 352 353 355 352 353 351 353 351 354 355 357 357 358 357 356
346 348 352 355 359 359 358 358 363 359 354 348 359 358 351 346 350 346 345 346 345 347 353 353 350 351 350 350 350 354 353 353 353 352 352 350 352 353 355 357 356 357 357
346 347 349 355 357 359 360 358 359 352 350 357 358 358 356 354 347 352 349 347 344 345 348 349 349 347 347 348 347 349 352 354 354 352 351 349 350 351 355 358 358 358 357
350 351 350 351 356 358 358 360 359 356 351 357 361 358 357 352 355 356 350 347 347 347 345 347 348 346 345 345 345 350 352 355 356 356 355 356 353 355 356 358 359 358 357
350 351 352 353 353 356 356 358 358 356 350 348 348 351 356 353 352 354 349 347 354 350 348 346 346 345 344 345 347 352 353 354 354 356 356 354 356 356 358 359 361 362 360
351 351 351 350 352 354 355 355 353 355 350 352 349 346 349 353 354 352 351 350 353 353 352 351 349 345 344 345 346 351 351 352 353 355 356 357 356 355 356 357 360 363 359
352 353 351 352 351 354 355 355 351 352 349 349 348 348 346 349 354 352 352 352 348 350 351 353 352 350 346 345 345 349 351 352 354 351 354 357 357 356 355 358 359 360 360
353 354 355 355 356 357 357 356 356 356 352 353 351 352 349 348 351 350 350 354 350 354 351 352 353 353 349 346 344 345 350 351 353 352 352 353 355 355 355 358 358 356 361
352 353 354 355 357 355 353 352 352 350 354 353 354 353 351 349 347 347 347 352 350 352 351 352 353 351 347 349 346 345 348 349 350 351 353 353 353 354 355 357 357 358 358
350 352 353 354 356 354 353 355 354 354 353 355 356 356 354 351 348 351 350 350 354 349 346 346 352 351 354 354 349 349 337 341 345 347 350 350 352 352 353 356 357 359 360
349 350 352 354 355 355 355 355 353 353 354 352 352 353 353 351 352 353 354 353 351 351 348 350 352 352 349 353 354 349 336 333 341 349 348 349 351 351 352 354 356 358 360
346 349 352 353 354 354 355 353 352 350 348 352 353 355 356 356 356 356 356 354 353 346 348 350 350 352 352 345 351 349 349 346 337 336 347 349 351 350 352 353 355 357 359
346 347 350 352 354 355 355 354 351 351 352 353 352 352 356 356 356 356 356 356 354 352 352 350 352 352 351 348 345 345 350 349 348 341 338 342 348 350 353 354 354 355 357
346 348 349 352 353 355 355 355 354 352 354 352 353 352 352 354 356 356 356 356 356 355 355 354 353 352 349 351 350 348 345 343 343 341 340 342 342 347 350 352 354 355 356
Wind_Speed
9 11 12 15 17 18 20 21 20 18 17 17 17 17 16 15 14 13 12 13 15 15 15 15 15 14 15 14 14 15 14 14 14 15 16 15 15 15 14 14 10 15 14
14 13 13 15 17 18 19 19 19 18 17 18 17 16 16 14 14 13 12 14 15 16 16 16 15 15 14 13 13 13 15 14 13 13 14 15 13 15 14 14 14 14 14
16 15 15 14 17 17 18 18 18 18 17 17 16 16 15 14 14 14 13 13 16 15 15 15 15 15 13 13 14 13 13 13 13 13 11 8 11 14 12 13 13 14 13
16 15 15 14 16 17 16 17 17 17 18 16 16 16 14 15 14 15 13 12 15 15 15 15 15 14 13 13 13 12 13 12 12 8 6 7 8 12 12 12 12 12 11
14 14 15 15 16 16 16 16 16 16 16 15 15 16 16 15 16 16 13 14 14 14 14 13 13 14 13 13 11 12 12 11 10 8 7 5 5 10 10 10 10 12 7
15 14 17 17 17 16 16 16 16 15 15 15 15 15 15 14 15 16 13 15 14 13 12 12 12 12 12 11 10 9 8 9 5 5 5 6 5 9 9 9 8 10 8
14 14 15 15 15 16 15 14 15 15 15 14 15 15 15 15 15 16 15 15 14 12 11 10 10 11 10 9 7 7 6 6 4 4 3 5 5 4 7 7 7 7 8
14 13 14 14 14 14 15 15 14 15 15 14 14 14 13 12 13 13 13 14 14 12 10 9 9 8 7 7 6 6 4 4 4 3 2 4 5 3 5 8 6 6 6
13 12 12 13 13 15 14 15 15 13 14 13 12 13 13 11 10 11 12 11 12 13 11 8 6 6 5 3 3 3 5 6 5 3 4 4 5 5 5 7 8 6 6
11 12 11 10 12 11 11 14 13 12 12 11 10 9 13 7 4 6 5 8 10 11 9 9 6 4 3 1 1 2 4 5 5 5 4 4 6 8 7 6 8 7 5
10 11 12 12 10 10 10 11 12 11 10 9 8 3 8 7 4 2 2 4 6 7 7 7 6 4 3 1 2 4 5 4 5 4 4 4 8 10 11 9 8 9 8
14 14 12 12 12 11 9 10 10 7 4 5 5 2 3 2 2 4 6 7 7 5 5 4 4 3 4 2 2 3 3 4 4 5 4 6 9 10 12 13 10 10 10
15 12 14 12 11 11 9 7 6 5 3 2 5 6 8 2 2 3 2 2 2 4 3 5 4 4 3 2 3 3 4 4 3 4 3 5 7 7 9 11 13 11 11
14 15 14 14 11 11 7 7 6 3 2 6 6 9 5 4 7 4 2 3 3 2 4 5 3 4 5 4 5 5 6 4 3 3 4 8 10 9 11 11 12 13 13
13 14 15 14 13 11 11 8 7 5 6 8 8 9 7 6 4 4 5 5 4 4 6 6 5 4 5 6 6 7 6 6 6 5 5 7 11 11 13 13 13 13 13
14 14 15 15 14 13 11 11 8 6 6 7 6 8 8 4 5 6 4 4 5 5 6 6 6 6 6 6 8 7 8 6 6 7 5 5 12 13 13 14 15 13 13
14 12 14 13 14 14 12 10 7 4 4 5 3 5 8 7 7 6 3 5 6 5 6 6 7 6 7 7 8 7 7 8 6 7 6 4 5 12 12 14 14 13 14
12 13 13 11 13 14 12 8 6 6 4 4 2 4 7 9 9 7 7 6 6 5 5 5 6 6 7 7 7 6 6 8 8 7 7 5 5 5 10 12 12 13 14
13 12 13 13 13 14 13 10 8 6 7 7 5 5 6 7 9 8 6 5 4 5 6 5 6 7 7 8 7 7 6 7 8 6 7 7 8 7 5 8 9 9 14
13 13 13 12 14 13 9 8 6 7 7 7 6 7 7 5 5 7 5 8 6 6 6 7 8 7 7 7 7 7 8 8 8 7 7 7 7 8 8 7 5 7 13
14 14 14 14 13 10 8 7 8 8 7 7 8 10 9 7 9 7 6 10 6 7 6 7 7 8 7 7 6 7 8 10 10 9 8 7 8 8 7 7 6 5 6
16 16 15 15 14 12 9 5 4 3 3 4 4 6 8 11 10 9 9 9 9 5 5 5 8 4 6 7 4 3 5 5 6 8 8 8 10 7 8 9 8 8 7
15 16 14 13 13 11 10 6 4 3 3 5 5 4 6 8 10 11 12 10 8 8 7 6 7 8 5 4 8 3 3 4 3 2 4 5 8 8 8 9 9 9 9
13 9 12 13 13 12 11 8 10 8 8 5 5 4 5 8 9 11 11 11 10 6 8 8 8 9 8 7 3 6 8 4 4 4 3 2 4 8 8 7 8 9 9
10 11 12 11 11 10 12 12 8 11 9 6 4 5 6 6 8 10 11 11 11 9 11 10 9 10 8 8 7 4 6 6 7 7 7 4 3 4 6 8 8 8 10
8 11 7 9 9 9 11 12 11 10 10 7 7 6 5 5 5 10 11 11 11 10 11 10 11 11 9 8 7 6 7 5 6 6 6 6 5 4 4 6 8 8 8
Wind_Direction
143 153 136 119 118 118 121 124 123 121 123 128 127 127 124 123 123 114 109 108 107 102 101 99 99 103 103 104 104 98 98 94 94 94 95 93 91 88 84 81 98 87 86
139 145 136 126 119 117 118 122 123 124 129 128 126 128 130 129 121 116 116 113 109 108 106 106 105 101 102 104 101 104 101 96 93 93 98 93 88 88 90 85 76 87 84
137 140 140 130 122 119 119 124 126 130 130 130 131 132 134 134 127 124 120 119 113 111 116 114 113 112 112 111 107 101 95 90 99 89 93 88 90 92 86 84 84 83 79
137 142 142 132 127 126 127 130 132 136 137 137 137 138 139 133 133 126 125 114 112 116 114 123 121 117 119 116 113 101 91 89 86 91 92 93 96 94 94 91 92 94 90
135 139 136 136 133 136 135 138 137 137 139 139 135 133 131 133 132 124 130 122 118 118 119 115 117 119 121 123 119 109 107 103 102 101 92 85 93 104 106 104 112 97 79
139 141 142 143 140 142 142 142 142 144 143 141 136 131 134 136 131 125 132 127 128 122 114 119 119 119 123 122 123 122 121 107 110 110 110 107 84 115 119 113 108 106 99
142 141 145 143 144 144 143 147 147 147 150 146 146 147 144 144 139 137 138 134 133 130 127 127 123 128 133 137 142 146 138 137 137 135 107 132 136 123 136 124 122 122 120
145 147 146 145 147 150 152 154 148 150 151 155 152 143 137 137 138 138 136 133 131 128 128 128 128 130 135 146 162 166 172 147 122 124 180 195 124 161 150 134 137 148 139
149 151 154 155 157 162 165 159 154 162 159 160 150 147 131 144 142 143 141 143 142 141 142 140 140 140 147 164 175 194 212 205 168 202 209 194 161 196 182 154 154 162 162
158 161 163 164 165 170 174 165 171 168 164 161 156 157 133 113 139 140 153 161 159 153 153 146 155 158 153 179 8 296 263 246 216 212 210 211 215 208 203 189 169 185 182
169 175 172 174 175 173 182 175 177 185 169 158 144 177 114 135 214 45 205 242 200 172 163 153 168 179 213 246 23 334 311 269 240 221 236 177 231 227 212 205 194 194 195
179 184 182 186 185 185 186 183 179 183 164 128 124 136 356 156 203 284 261 242 239 205 205 176 191 198 241 270 264 260 277 265 262 248 239 211 227 218 214 213 208 207 204
188 189 191 190 193 198 194 189 182 177 170 165 171 186 181 182 253 258 255 267 322 237 237 211 224 232 236 275 287 303 281 273 256 263 274 245 257 218 221 219 219 211 213
192 198 196 197 199 206 201 199 188 176 184 210 230 205 177 188 228 220 226 248 264 279 240 254 253 289 271 261 291 287 274 266 250 256 238 242 241 242 231 219 214 220 228
196 200 203 202 202 207 209 207 199 154 223 227 227 212 198 203 200 207 228 226 235 229 234 237 248 270 282 287 288 285 283 267 257 252 257 224 235 239 233 224 229 235 230
201 201 201 203 204 210 216 213 211 209 208 243 225 216 215 196 226 220 204 238 234 239 232 236 250 271 283 286 285 280 276 280 264 259 254 236 227 233 234 233 238 230 224
204 204 208 202 204 212 216 218 218 228 148 232 237 234 218 214 236 238 207 242 238 221 215 222 242 252 264 267 270 274 271 274 264 264 259 239 220 221 231 236 228 221 226
221 196 204 204 206 212 211 202 219 199 182 242 241 216 225 222 228 231 230 222 231 242 234 217 224 240 253 255 261 266 276 275 266 267 253 238 222 234 206 233 239 213 221
217 216 210 206 211 214 212 196 216 185 178 207 211 214 220 234 235 235 237 237 188 229 233 240 225 228 241 246 249 261 266 271 266 266 244 236 223 227 226 184 232 226 219
220 218 217 210 214 214 196 208 229 218 207 210 213 220 217 240 249 232 222 241 204 217 222 237 241 229 237 242 253 262 265 266 266 258 254 237 224 230 227 222 213 215 216
226 219 214 213 212 203 201 199 222 226 227 229 217 207 206 198 209 205 212 236 215 220 225 239 249 236 226 220 246 252 256 254 252 250 247 244 240 232 229 227 227 229 202
225 223 215 215 208 206 215 208 198 175 208 225 210 220 211 210 207 216 213 220 217 204 199 215 232 247 232 202 204 211 263 241 237 247 242 248 244 234 232 225 227 224 230
229 224 216 215 212 213 208 209 201 192 223 217 202 223 207 216 216 213 215 217 214 212 222 219 225 224 254 232 217 212 216 243 314 184 235 248 246 233 239 232 227 219 224
244 224 211 206 205 208 197 209 221 233 234 224 223 193 195 201 221 214 212 216 218 202 221 221 222 235 230 235 214 228 247 283 279 284 201 258 237 228 225 221 224 220 220
223 216 213 199 201 203 203 212 208 233 252 252 251 252 236 204 216 222 210 210 224 220 222 219 222 223 227 243 231 212 225 229 235 255 275 263 262 237 232 227 226 225 218
205 217 208 210 206 199 209 219 219 239 249 249 242 240 226 224 209 217 215 222 218 224 229 225 220 220 228 236 238 228 226 233 198 214 247 271 289 279 240 220 225 225 228